INTELSAT 40E (IS-40E)

Last updated on Sun Dec 14 2025 00:02:53 GMT+0000 (Coordinated Universal Time)

1 56174U 23052A 25347.18568821 -.00000161 00000+0 00000+0 0 9992 2 56174 0.0148 18.4160 0001802 212.9023 186.6480 1.00271792 9953
UTC large
Height (km)
Speed (km/s)
/
Latitude / Longitude
Inclination (degrees)
Orbital Period (minutes)
Azimuth
Elevation
Range (km)
Doppler Factor

Next 0 passes for location: London (51.5072 / 0.1276)

Sorry there are no passes over London.